TimeEDT,TemperatureF,Dew PointF,Humidity,Sea Level PressureIn,VisibilityMPH,Wind Direction,Wind SpeedMPH,Gust SpeedMPH,PrecipitationIn,Events,Conditions,WindDirDegrees,DateUTC
12:56 AM,52.9,52.0,97,30.00,10.0,North,3.5,-,N/A,,Clear,350,2013-06-15 04:56:00
1:56 AM,55.9,54.0,93,29.99,10.0,North,4.6,-,N/A,,Partly Cloudy,350,2013-06-15 05:56:00
2:56 AM,52.9,50.9,93,30.00,10.0,Calm,Calm,-,N/A,,Clear,0,2013-06-15 06:56:00
3:56 AM,54.9,52.9,93,30.00,10.0,North,5.8,-,N/A,,Clear,350,2013-06-15 07:56:00
4:56 AM,48.9,48.9,100,30.01,4.0,Calm,Calm,-,N/A,,Clear,0,2013-06-15 08:56:00
5:08 AM,48.2,48.2,100,30.01,2.0,Calm,Calm,-,N/A,,Clear,0,2013-06-15 09:08:00
5:13 AM,48.2,48.2,100,30.02,1.2,Calm,Calm,-,N/A,,Clear,0,2013-06-15 09:13:00
5:19 AM,48.2,48.2,100,30.02,0.8,Calm,Calm,-,N/A,,Clear,0,2013-06-15 09:19:00
5:26 AM,48.2,46.4,93,30.02,0.2,Calm,Calm,-,N/A,Fog,Fog,0,2013-06-15 09:26:00
5:42 AM,48.2,46.4,93,30.02,0.5,Calm,Calm,-,N/A,Fog,Fog,0,2013-06-15 09:42:00
5:56 AM,47.8,46.9,97,30.01,0.5,Calm,Calm,-,N/A,Fog,Fog,0,2013-06-15 09:56:00
6:02 AM,48.2,48.2,100,30.01,1.0,Calm,Calm,-,N/A,,Clear,0,2013-06-15 10:02:00
6:16 AM,48.2,48.2,100,30.01,2.0,Calm,Calm,-,N/A,,Clear,0,2013-06-15 10:16:00
6:26 AM,48.2,48.2,100,30.02,10.0,Calm,Calm,-,N/A,Fog,Patches of Fog,0,2013-06-15 10:26:00
6:56 AM,52.9,52.0,97,30.04,10.0,Calm,Calm,-,N/A,,Clear,0,2013-06-15 10:56:00
7:56 AM,59.0,54.0,83,30.06,10.0,Variable,3.5,-,N/A,,Clear,0,2013-06-15 11:56:00
8:56 AM,61.0,50.9,69,30.05,10.0,NNW,6.9,-,N/A,,Clear,330,2013-06-15 12:56:00
9:56 AM,63.9,50.0,61,30.06,10.0,NNW,3.5,-,N/A,,Clear,330,2013-06-15 13:56:00
10:56 AM,66.9,52.9,61,30.06,10.0,West,3.5,-,N/A,,Clear,270,2013-06-15 14:56:00
11:56 AM,70.0,52.0,53,30.06,10.0,NW,9.2,-,N/A,,Scattered Clouds,310,2013-06-15 15:56:00
12:56 PM,70.9,48.9,46,30.04,10.0,NW,9.2,16.1,N/A,,Scattered Clouds,320,2013-06-15 16:56:00
1:56 PM,72.0,47.8,42,30.03,10.0,WNW,9.2,21.9,N/A,,Scattered Clouds,300,2013-06-15 17:56:00
2:56 PM,72.0,46.9,41,30.02,10.0,WNW,8.1,-,N/A,,Partly Cloudy,300,2013-06-15 18:56:00
3:56 PM,72.9,45.9,38,30.01,10.0,NW,11.5,-,N/A,,Partly Cloudy,320,2013-06-15 19:56:00
4:56 PM,72.9,43.9,35,30.00,10.0,NNW,9.2,-,N/A,,Clear,340,2013-06-15 20:56:00
5:56 PM,72.0,45.9,39,30.00,10.0,NNW,5.8,-,N/A,,Clear,330,2013-06-15 21:56:00
6:56 PM,70.9,45.0,39,30.00,10.0,NNW,5.8,-,N/A,,Clear,330,2013-06-15 22:56:00
7:56 PM,66.9,46.9,49,30.01,10.0,NW,5.8,-,N/A,,Clear,320,2013-06-15 23:56:00
8:56 PM,61.9,50.0,65,30.01,10.0,Calm,Calm,-,N/A,,Clear,0,2013-06-16 00:56:00
9:56 PM,54.0,50.9,89,30.04,10.0,Calm,Calm,-,N/A,,Clear,0,2013-06-16 01:56:00
10:56 PM,52.9,50.0,90,30.02,10.0,Calm,Calm,-,N/A,,Clear,0,2013-06-16 02:56:00
11:56 PM,52.0,50.0,93,30.01,10.0,Calm,Calm,-,N/A,,Clear,0,2013-06-16 03:56:00